Regional Weather Roundup
Issued by NWS Cleveland, OH

Home | Current Version | Previous Version | Graphics & Text | Print | Product List | Glossary On
Versions: 1 2 3 4 5 6 7 8 9 10 11 12 13 14 15 16 17 18 19 20 21 22 23 24 25 26 27 28 29 30 31 32 33 34 35 36 37 38 39 40 41 42 43 44 45 46 47 48 49 50
000
ASUS41 KCLE 131200
RWRCLE
OHIO REGIONAL WEATHER ROUNDUP
NATIONAL WEATHER SERVICE WILMINGTON, OH
700 AM EST WED DEC 13 2017

NOTE: "FAIR" INDICATES FEW OR NO CLOUDS BELOW 12,000 FEET WITH NO
SIGNIFICANT WEATHER AND/OR OBSTRUCTIONS TO VISIBILITY.

OHZ001>008-015>018-024>027-034-035-043-044-131300-
   NORTHWEST OHIO

CITY           SKY/WX    TMP DP  RH WIND       PRES   REMARKS
DEFIANCE       CLOUDY    16   9  74 S6        29.84F WCI   7
FINDLAY        CLOUDY    18   9  68 SW8       29.85F WCI   8
TOLEDO EXPRESS MOCLDY    18  14  84 SW7       29.84F WCI   9
TOLEDO EXEC    FAIR      19  12  74 SW10      29.86F WCI   7
LIMA           CLOUDY    16  10  77 S7        29.85F WCI   6
$$

OHZ009>014-019>023-028>033-038-089-131300-
   NORTHEAST OHIO

CITY           SKY/WX    TMP DP  RH WIND       PRES   REMARKS
CLE-HOPKINS    LGT SNOW  17  13  84 W12       29.88R FOG     WCI   4
CLE-LAKEFRONT  FLURRIES  21  11  65 W20G30    29.84F WCI   6
CUY CO. ARPT   CLOUDY    19   9  63 NW14G23   29.83  WCI   6
LORAIN-ELYRIA  CLOUDY    17   5  59 W10       29.86S WCI   5
ASHTABULA      CLOUDY    17   6  62 NW10G21   29.80S WCI   5
AKRON-CANTON   MOCLDY    15   4  61 W8        29.84R WCI   4
WOOSTER        NOT AVBL
MANSFIELD      CLOUDY    17  12  80 SW9       29.83F WCI   6
YOUNGSTOWN     LGT SNOW  15  11  83 W10       29.80R FOG     WCI   2
$$

OHZ042-051>053-060>062-070>072-077>081-131300-
  SOUTHWEST OHIO

CITY           SKY/WX    TMP DP  RH WIND       PRES   REMARKS
CINC-COVINGTON CLOUDY    20  12  71 SW7       29.92F WCI  11
CINC-LUNKEN    CLOUDY    21  11  65 S6        29.97F WCI  13
HAMILTON       CLOUDY    21  10  62 S5        29.95F WCI  15
DAYTON         NOT AVBL
WRIGHT-PAT AFB CLOUDY    19   9  66 S10       29.90F WCI   7
DAYTON GENERAL CLOUDY    18  10  71 S7        29.90F WCI   9
WILMINGTON     CLOUDY    17  11  77 SW8       29.90S WCI   7
$$

OHZ036-037-039>041-045>050-054>059-063>069-073>076-082>088-131300-
  CENTRAL AND SOUTHEAST OHIO

CITY           SKY/WX    TMP DP  RH WIND       PRES   REMARKS
COLUMBUS       CLOUDY    18  10  71 SW8       29.92S WCI   8
OSU AIRPORT    MOCLDY    16  10  77 SW7       29.90F WCI   6
BOLTON FIELD   NOT AVBL
RICKENBACK AFB NOT AVBL
NEWARK         MOCLDY    19   9  65 W6        29.91S WCI  11
MARION           N/A     17   9  70 SW9       29.87  WCI   6
LANCASTER      CLOUDY    16   9  74 SW7       29.93S WCI   6
ZANESVILLE     CLOUDY    20  10  65 W8        29.91R WCI  10
NEW PHILLY     CLOUDY    18   8  65 W6        29.90R WCI  10
$$



USA.gov is the U.S. government's official web portal to all federal, state and local government web resources and services.